Jackson, TN

7:08 PM CDT on March 30, 2017 (GMT -0500)
McKellar-Sipes Regional

Weather History for KMKL - November, 2013

Change the Weather History Date:

Saturday, November 23, 2013

  Actual Average Record
Temperature  
Mean Temperature 37 °F 47 °F  
Max Temperature 46 °F 58 °F 74 °F (1973)
Min Temperature 27 °F 36 °F 16 °F (1964)
Degree Days  
Heating Degree Days 28 18  
Month to date heating degree days 365 317  
Since 1 July heating degree days 570 531  
Cooling Degree Days 0 0  
Month to date cooling degree days 0 2  
Year to date cooling degree days 1592 1693  
Moisture  
Dew Point 28 °F    
Average Humidity 61    
Maximum Humidity 86    
Minimum Humidity 36    
Precipitation  
Precipitation T in 0.17 in 3.09 in (2010)
Month to date precipitation 1.64 3.61  
Year to date precipitation 53.38 46.63  
Snow  
Snow 0.00 in 0.00 in 1.00 in (1950)
Month to date snowfall 0.0 0.1  
Since 1 July snowfall 0.0 0.1  
Since 1 September snowfall 0.0 0.1  
Snow Depth 0.00 in    
Sea Level Pressure  
Sea Level Pressure 30.48 in    
Wind  
Wind Speed 14 mph (North)    
Max Wind Speed 26 mph    
Max Gust Speed 33 mph    
Visibility 10 miles    
Events      
T = Trace of Precipitation, MM = Missing Value Source: NWS Daily Summary

Daily Weather History Graph

Daily Weather History Graph

Search for Another Location

Airport or City:

Trip Planner

Search our weather history database for the weather conditions in past years. The results will help you decide how hot, cold, wet, or windy it might be!

Date:

Astronomy

Nov. 23, 2013 Rise Set
Actual Time 6:39 AM CST 4:44 PM CST
Civil Twilight 6:11 AM CST 5:12 PM CST
Nautical Twilight 5:40 AM CST 5:43 PM CST
Astronomical Twilight 5:10 AM CST 6:13 PM CST
Moon 10:08 PM CST (11/23) 11:00 AM CST (11/23)
Length of Visible Light 11h 00m
Length of Day
10h 05m
Waning Gibbous, 69% of the Moon is Illuminated
Nov 23
Waning Gibbous
Nov 25
Last Quarter
Dec 2
New
Dec 9
First Quarter
Dec 17
Full

Hourly Weather History & Observations

Time (CST) Temp. Windchill Dew Point Humidity Pressure Visibility Wind Dir Wind Speed Gust Speed Precip Events Conditions
12:53 AM 44.1 °F 38.6 °F 39.0 °F 82% 30.37 in 10.0 mi North 10.4 mph - N/A   Overcast
1:53 AM 43.0 °F 37.7 °F 37.9 °F 82% 30.39 in 10.0 mi NNE 9.2 mph - N/A   Overcast
2:53 AM 43.0 °F 35.7 °F 37.9 °F 82% 30.39 in 10.0 mi NNE 15.0 mph - N/A   Overcast
3:53 AM 43.0 °F 36.8 °F 37.0 °F 80% 30.40 in 10.0 mi North 11.5 mph - N/A   Overcast
4:53 AM 42.1 °F 34.9 °F 37.0 °F 82% 30.40 in 10.0 mi North 13.8 mph - N/A   Overcast
5:53 AM 41.0 °F 34.3 °F 37.0 °F 86% 30.42 in 10.0 mi North 11.5 mph - 0.00 in   Overcast
6:53 AM 41.0 °F 34.3 °F 36.0 °F 82% 30.44 in 10.0 mi North 11.5 mph - N/A   Overcast
7:36 AM 39.2 °F 30.8 °F 35.6 °F 87% 30.45 in 10.0 mi North 15.0 mph - N/A   Overcast
7:53 AM 41.0 °F 33.9 °F 35.1 °F 79% 30.47 in 10.0 mi NNE 12.7 mph - N/A   Overcast
8:53 AM 41.0 °F 33.1 °F 34.0 °F 76% 30.48 in 10.0 mi North 15.0 mph - N/A   Overcast
9:53 AM 42.1 °F 33.9 °F 34.0 °F 73% 30.50 in 10.0 mi North 17.3 mph - N/A   Mostly Cloudy
10:53 AM 42.1 °F 34.2 °F 33.1 °F 70% 30.49 in 10.0 mi NNE 16.1 mph - N/A   Mostly Cloudy
11:27 AM 44.6 °F 37.2 °F 33.8 °F 66% 30.47 in 10.0 mi North 17.3 mph - N/A   Scattered Clouds
11:53 AM 43.0 °F 36.4 °F 30.9 °F 62% 30.47 in 10.0 mi North 12.7 mph - N/A   Clear
12:53 PM 44.1 °F 36.2 °F 27.0 °F 51% 30.47 in 10.0 mi North 18.4 mph - N/A   Clear
1:53 PM 44.1 °F 37.1 °F 24.1 °F 45% 30.47 in 10.0 mi North 15.0 mph - N/A   Mostly Cloudy
2:53 PM 44.1 °F 37.7 °F 21.9 °F 42% 30.47 in 10.0 mi NNE 12.7 mph - N/A   Scattered Clouds
3:53 PM 43.0 °F 36.4 °F 17.1 °F 35% 30.49 in 10.0 mi NNW 12.7 mph - N/A   Overcast
4:53 PM 39.9 °F 35.1 °F 19.9 °F 45% 30.49 in 10.0 mi North 6.9 mph - N/A   Clear
5:53 PM 37.9 °F 31.5 °F 21.0 °F 51% 30.51 in 10.0 mi North 9.2 mph - N/A   Clear
6:53 PM 36.0 °F 24.4 °F 19.0 °F 50% 30.53 in 10.0 mi North 23.0 mph 29.9 mph N/A   Clear
7:53 PM 33.1 °F 23.4 °F 17.1 °F 52% 30.56 in 10.0 mi North 13.8 mph 24.2 mph N/A   Clear
8:53 PM 30.9 °F 20.2 °F 17.1 °F 57% 30.56 in 10.0 mi North 15.0 mph 21.9 mph N/A   Clear
9:53 PM 30.0 °F 18.3 °F 17.1 °F 59% 30.58 in 10.0 mi North 17.3 mph 26.5 mph N/A   Clear
10:53 PM 28.9 °F 16.5 °F 17.1 °F 61% 30.60 in 10.0 mi NNE 18.4 mph 28.8 mph N/A   Clear
11:53 PM 27.0 °F 13.5 °F 15.1 °F 61% 30.60 in 10.0 mi NNE 19.6 mph 24.2 mph N/A   Clear